Location: *
(50.2903°S, 172.5375°W)
Time: 15:41:10
(UTC+00:00)

Cosmos 1758 Rocket - Pass Details

Date: 17 November 2019
Orbit: 602 x 636 km, 82.5° (Epoch: 05 December)

Event Time Altitude Azimuth Distance (km) Brightness Sun altitude
Rises 12:51:25 0° 189° (S) 2,907 8.0 -17.5°
Reaches altitude 10° 12:53:40 10° 185° (S) 1,998 7.1 -17.4°
Maximum altitude 12:58:05 65° 102° (ESE) 685 3.9 -17.1°
Enters shadow 13:01:09 19° 23° (NNE) 1,478 5.1 -16.9°
